Weather History for KHEI - December, 2011

Change the Weather History Date:

Wednesday, December 14, 2011

  Actual Average Record
Temperature  
Mean Temperature 26 °F -  
Max Temperature 32 °F 30 °F 62 °F (1997)
Min Temperature 20 °F 7 °F -20 °F (2008)
Degree Days  
Heating Degree Days 39 47  
Month to date heating degree days 653 631  
Since 1 July heating degree days 2495 2761  
Moisture  
Dew Point 21 °F    
Average Humidity 87    
Maximum Humidity 92    
Minimum Humidity 74    
Precipitation  
Precipitation 0.00 in 0.01 in 0.00 in (2015)
Month to date precipitation 0.05 0.10  
Year to date precipitation 15.75 15.89  
Sea Level Pressure  
Sea Level Pressure 29.85 in    
Wind  
Wind Speed 14 mph (West)    
Max Wind Speed 30 mph    
Max Gust Speed 38 mph    
Visibility 5 miles    
Events Fog    
T = Trace of Precipitation, MM = Missing Value Source: NWS Daily Summary

Daily Weather History Graph

Daily Weather History Graph

Search for Another Location

Airport or City:

Trip Planner

Search our weather history database for the weather conditions in past years. The results will help you decide how hot, cold, wet, or windy it might be!

Date:

Astronomy

Dec. 14, 2011 Rise Set
Actual Time 7:24 AM MST 4:05 PM MST
Civil Twilight 6:50 AM MST 4:40 PM MST
Nautical Twilight 6:12 AM MST 5:18 PM MST
Astronomical Twilight 5:35 AM MST 5:54 PM MST
Moon 8:38 PM MST (12/14) 10:01 AM MST (12/14)
Length of Visible Light 9h 49m
Length of Day
8h 40m
Waning Gibbous, 83% of the Moon is Illuminated
Dec 14
Waning Gibbous
Dec 17
Last Quarter
Dec 24
New
Dec 31
First Quarter
Jan 9
Full

Hourly Weather History & Observations

Time (MST) Temp. Windchill Dew Point Humidity Pressure Visibility Wind Dir Wind Speed Gust Speed Precip Events Conditions
12:46 AM 24.8 °F 16.9 °F 21.2 °F 86% 29.79 in 2.0 mi SSW 6.9 mph - N/A   Overcast
12:53 AM 24.1 °F 17.0 °F 21.9 °F 91% 29.89 in 2.0 mi SSW 5.8 mph - N/A   Overcast
1:46 AM 24.8 °F 16.9 °F 21.2 °F 86% 29.78 in 1.5 mi SW 6.9 mph - N/A   Overcast
1:53 AM 25.0 °F 18.1 °F 23.0 °F 92% 29.88 in 1.8 mi SW 5.8 mph - N/A   Overcast
2:07 AM 24.8 °F 14.6 °F 23.0 °F 93% 29.78 in 2.0 mi SW 10.4 mph - N/A   Overcast
2:51 AM 24.8 °F 17.9 °F 23.0 °F 93% 29.76 in 1.8 mi SW 5.8 mph - N/A   Overcast
2:53 AM 25.0 °F 19.3 °F 23.0 °F 92% 29.87 in 1.5 mi SW 4.6 mph - N/A   Overcast
3:53 AM 25.0 °F 19.3 °F 23.0 °F 92% 29.86 in 2.0 mi SW 4.6 mph - N/A   Overcast
4:12 AM 24.8 °F 19.1 °F 23.0 °F 93% 29.75 in 1.8 mi West 4.6 mph - N/A   Overcast
4:21 AM 24.8 °F 19.1 °F 23.0 °F 93% 29.75 in 2.0 mi SW 4.6 mph - N/A   Overcast
4:51 AM 24.8 °F 16.9 °F 23.0 °F 93% 29.75 in 3.0 mi WSW 6.9 mph - N/A   Overcast
4:53 AM 25.0 °F 17.1 °F 23.0 °F 92% 29.85 in 4.0 mi West 6.9 mph - N/A   Overcast
5:08 AM 24.8 °F 20.5 °F 23.0 °F 93% 29.74 in 2.0 mi WSW 3.5 mph - N/A   Overcast
5:18 AM 24.8 °F 20.5 °F 23.0 °F 93% 29.73 in 1.5 mi WSW 3.5 mph - N/A   Overcast
5:53 AM 24.1 °F 16.0 °F 21.9 °F 91% 29.84 in 2.5 mi WSW 6.9 mph - N/A   Overcast
6:35 AM 24.8 °F 16.9 °F 21.2 °F 86% 29.74 in 2.5 mi WSW 6.9 mph - N/A   Overcast
6:53 AM 24.1 °F 15.2 °F 21.9 °F 91% 29.85 in 1.8 mi SW 8.1 mph - N/A   Overcast
7:27 AM 23.0 °F 15.8 °F 21.2 °F 93% 29.74 in 0.8 mi West 5.8 mph - N/A   Mist
7:34 AM 21.2 °F 12.6 °F 19.4 °F 93% 29.74 in 0.2 mi West 6.9 mph - N/A Fog Light Freezing Fog
7:53 AM 21.9 °F 12.5 °F 19.9 °F 92% 29.85 in 0.2 mi West 8.1 mph - N/A Fog Light Freezing Fog
8:00 AM 21.2 °F 11.7 °F 19.4 °F 93% 29.74 in 0.5 mi West 8.1 mph - N/A Fog Light Freezing Fog
8:33 AM 21.2 °F 10.9 °F 17.6 °F 86% 29.75 in 0.2 mi WSW 9.2 mph - N/A Fog Light Freezing Fog
8:42 AM 21.2 °F 12.6 °F 17.6 °F 86% 29.74 in 0.5 mi WSW 6.9 mph - N/A Fog Light Freezing Fog
8:53 AM 21.0 °F 11.4 °F 18.0 °F 88% 29.86 in 0.8 mi WSW 8.1 mph - N/A   Mist
9:00 AM 19.4 °F 8.6 °F 17.6 °F 93% 29.75 in 2.5 mi West 9.2 mph - N/A   Mostly Cloudy
9:07 AM 19.4 °F 8.6 °F 17.6 °F 93% 29.75 in 6.0 mi West 9.2 mph - N/A   Mostly Cloudy
9:18 AM 19.4 °F 7.9 °F 17.6 °F 93% 29.75 in 7.0 mi West 10.4 mph - N/A   Scattered Clouds
9:53 AM 21.9 °F 11.7 °F 19.0 °F 89% 29.85 in 8.0 mi West 9.2 mph - N/A   Partly Cloudy
10:53 AM 26.1 °F 15.0 °F 23.0 °F 88% 29.83 in 10.0 mi West 12.7 mph - N/A   Clear
11:53 AM 30.0 °F 18.7 °F 26.1 °F 85% 29.81 in 10.0 mi West 16.1 mph 23.0 mph N/A   Clear
12:53 PM 30.9 °F 19.1 °F 27.0 °F 85% 29.79 in 10.0 mi WNW 18.4 mph 24.2 mph N/A   Mostly Cloudy
1:53 PM 30.0 °F 18.7 °F 25.0 °F 82% 29.80 in 10.0 mi WNW 16.1 mph - N/A   Partly Cloudy
2:53 PM 28.9 °F 15.1 °F 21.9 °F 75% 29.84 in 10.0 mi WNW 23.0 mph 31.1 mph N/A   Clear
3:53 PM 26.1 °F 13.1 °F 19.9 °F 78% 29.90 in 10.0 mi WNW 17.3 mph - N/A   Clear
4:53 PM 26.1 °F 11.3 °F 19.9 °F 78% 29.94 in 10.0 mi NW 23.0 mph 31.1 mph N/A   Overcast
5:53 PM 24.1 °F 9.0 °F 18.0 °F 77% 29.99 in 10.0 mi NW 21.9 mph - 0.00 in   Clear
6:53 PM 24.1 °F 7.7 °F 18.0 °F 77% 30.02 in 10.0 mi NW 26.5 mph 34.5 mph N/A   Mostly Cloudy
7:53 PM 23.0 °F 8.7 °F 17.1 °F 78% 30.06 in 10.0 mi WNW 18.4 mph - 0.00 in   Mostly Cloudy
8:28 PM 23.0 °F 8.0 °F 17.6 °F 80% 29.97 in 10.0 mi NW 20.7 mph - N/A   Overcast
8:53 PM 24.1 °F 8.3 °F 17.1 °F 75% 30.10 in 10.0 mi NW 24.2 mph 32.2 mph N/A   Overcast
9:53 PM 23.0 °F 8.0 °F 16.0 °F 74% 30.10 in 10.0 mi NW 20.7 mph - N/A   Mostly Cloudy
10:53 PM 21.0 °F 7.6 °F 15.1 °F 78% 30.12 in 10.0 mi WNW 15.0 mph - N/A   Overcast
11:53 PM 21.9 °F 8.7 °F 16.0 °F 78% 30.12 in 10.0 mi WNW 15.0 mph - N/A   Overcast